Orbital Elements at Epoch 2459200.5 (2020-Dec-17.0) TDB
Reference: JPL 19 (heliocentric ecliptic J2000)
Element | Value | Uncertainty (1-sigma) | Units |
e | .09774291382395146 | 4.694e-08 | |
a | 2.777915404524772 | 2.0128e-08 | au |
q | 2.50639385853008 | 1.2748e-07 | au |
i | 14.94808636507266 | 7.3224e-06 | deg |
node | 337.5629013188391 | 1.7931e-05 | deg |
peri | 268.2584707573523 | 4.2115e-05 | deg |
M | 185.8165398114731 | 3.9794e-05 | deg |
tp | 2460018.741238853614 (2023-Mar-15.24123885) | 0.00019013 | TDB |
period | 1691.129833271642 4.63 | 1.838e-05 5.032e-08 | d yr |
n | .2128754356509386 | 2.3137e-09 | deg/d |
Q | 3.049436950519464 | 2.2095e-08 | au |
|
| | Orbit Determination Parameters
Additional Information
|